Location: ?p Thanh B�nh
(16.5833°N, 107.5333°E)
Time: 05:38:01
(UTC+00:00)

Cosmos 44 Rocket - Pass Details

Date: 29 October 2020
Orbit: 642 x 748 km, 65.1° (Epoch: 29 November)

Event Time Altitude Azimuth Distance (km) Brightness Sun altitude
Exits shadow 22:03:19 10° 312° (NW) 2,256 5.4 -11.0°
Maximum altitude 22:07:51 31° 250° (WSW) 1,279 4.2 -9.9°
Drops below altitude 10° 22:12:23 10° 189° (S) 2,244 6.0 -8.9°
Sets 22:14:58 0° 179° (S) 3,155 6.9 -8.3°
